�������l�o���
Date,Time,MP-1(��Sv/h),MP-2(��Sv/h),MP-3(��Sv/h),MP-4(��Sv/h),MP-5(��Sv/h),MP-6(��Sv/h),MP-7(��Sv/h),MP-8(��Sv/h),����,����(m/s),���J
2023/11/23,00:00,0.518,0.785,0.489,0.984,0.706,0.315,0.565,0.526,��쓌,0.9,��
2023/11/23,00:10,0.517,0.785,0.489,0.985,0.706,0.316,0.564,0.528,���쓌,1.2,��
2023/11/23,00:20,0.518,0.785,0.489,0.984,0.705,0.317,0.564,0.526,���쓌,0.9,��
2023/11/23,00:30,0.518,0.787,0.490,0.984,0.704,0.314,0.565,0.526,���쓌,0.9,��
2023/11/23,00:40,0.518,0.787,0.488,0.985,0.707,0.317,0.564,0.526,���쓌,0.9,��
2023/11/23,00:50,0.518,0.785,0.489,0.985,0.704,0.316,0.565,0.526,���쓌,1.2,��
2023/11/23,01:00,0.516,0.786,0.489,0.985,0.707,0.315,0.564,0.527,���쓌,1.7,��
2023/11/23,01:10,0.518,0.785,0.489,0.983,0.705,0.316,0.565,0.528,���쓌,1.9,��
2023/11/23,01:20,0.518,0.785,0.489,0.983,0.706,0.317,0.564,0.527,��,1.5,��
2023/11/23,01:30,0.519,0.787,0.488,0.985,0.706,0.318,0.564,0.526,��쓌,1.2,��
2023/11/23,01:40,0.518,0.786,0.489,0.985,0.707,0.316,0.565,0.528,��,2.2,��
2023/11/23,01:50,0.518,0.786,0.488,0.982,0.704,0.316,0.564,0.527,��,3.2,��
2023/11/23,02:00,0.519,0.786,0.489,0.985,0.706,0.317,0.565,0.526,��,4.4,��
2023/11/23,02:10,0.518,0.786,0.489,0.982,0.707,0.315,0.565,0.526,��,4.2,��
2023/11/23,02:20,0.518,0.787,0.490,0.984,0.706,0.316,0.564,0.527,��,4.8,��
2023/11/23,02:30,0.519,0.785,0.490,0.983,0.704,0.315,0.565,0.527,��쐼,5.5,��
2023/11/23,02:40,0.520,0.785,0.489,0.983,0.706,0.315,0.565,0.526,��쐼,5.4,��
2023/11/23,02:50,0.517,0.785,0.488,0.984,0.705,0.316,0.565,0.525,��쐼,5.3,��
2023/11/23,03:00,0.517,0.786,0.490,0.984,0.705,0.315,0.565,0.527,��쐼,5.6,��
2023/11/23,03:10,0.517,0.785,0.489,0.983,0.706,0.316,0.566,0.526,��,3.6,��
2023/11/23,03:20,0.518,0.786,0.489,0.984,0.707,0.316,0.564,0.526,��,3.2,��
2023/11/23,03:30,0.518,0.786,0.489,0.983,0.707,0.317,0.565,0.526,��쓌,3.4,��
2023/11/23,03:40,0.517,0.785,0.489,0.984,0.705,0.317,0.565,0.527,�쓌,3.5,��
2023/11/23,03:50,0.518,0.786,0.490,0.983,0.706,0.316,0.564,0.527,�쓌,2.6,��
2023/11/23,04:00,0.518,0.786,0.488,0.983,0.706,0.316,0.566,0.528,��쓌,2.5,��
2023/11/23,04:10,0.518,0.786,0.488,0.985,0.706,0.316,0.566,0.527,�쓌,2.8,��
2023/11/23,04:20,0.519,0.787,0.489,0.983,0.705,0.318,0.565,0.526,�쓌,2.6,��
2023/11/23,04:30,0.517,0.785,0.488,0.986,0.706,0.316,0.564,0.528,�쓌,1.5,��
2023/11/23,04:40,0.517,0.785,0.489,0.982,0.708,0.316,0.564,0.527,���쓌,0.9,��
2023/11/23,04:50,0.519,0.787,0.489,0.985,0.705,0.316,0.565,0.527,�쓌,0.6,��
2023/11/23,05:00,0.518,0.786,0.489,0.983,0.706,0.317,0.565,0.526,��,0.8,��
2023/11/23,05:10,0.517,0.786,0.489,0.985,0.705,0.318,0.565,0.527,-,CALM,��
2023/11/23,05:20,0.520,0.785,0.489,0.984,0.706,0.317,0.566,0.527,�쓌,0.6,��
2023/11/23,05:30,0.517,0.786,0.487,0.983,0.707,0.316,0.565,0.526,��쓌,1.1,��
2023/11/23,05:40,0.518,0.787,0.489,0.984,0.706,0.315,0.565,0.527,���쓌,1.4,��
2023/11/23,05:50,0.516,0.786,0.491,0.984,0.705,0.315,0.564,0.528,���쓌,1.1,��
2023/11/23,06:00,0.518,0.785,0.489,0.983,0.706,0.316,0.566,0.527,�쓌,1.2,��
2023/11/23,06:10,0.520,0.786,0.488,0.985,0.706,0.316,0.566,0.529,�k�k��,0.9,��
2023/11/23,06:20,0.518,0.786,0.489,0.986,0.706,0.315,0.566,0.527,�k�k��,0.6,��
2023/11/23,06:30,0.518,0.785,0.490,0.983,0.705,0.315,0.566,0.527,-,CALM,��
2023/11/23,06:40,0.519,0.788,0.489,0.984,0.707,0.316,0.567,0.526,�쓌,0.6,��
2023/11/23,06:50,0.518,0.787,0.489,0.983,0.706,0.316,0.564,0.528,���쓌,1.1,��
2023/11/23,07:00,0.518,0.788,0.489,0.984,0.706,0.317,0.564,0.526,-,CALM,��
2023/11/23,07:10,0.517,0.786,0.487,0.983,0.706,0.317,0.565,0.527,��,1.5,��
2023/11/23,07:20,0.516,0.785,0.489,0.986,0.707,0.316,0.565,0.527,���쓌,0.9,�L
2023/11/23,07:30,0.519,0.787,0.490,0.984,0.706,0.316,0.565,0.527,��쓌,0.9,�L
2023/11/23,07:40,0.517,0.785,0.489,0.984,0.709,0.316,0.562,0.527,��쓌,1.2,��
2023/11/23,07:50,0.517,0.788,0.491,0.986,0.706,0.318,0.564,0.528,��쓌,2.0,�L
2023/11/23,08:00,0.517,0.787,0.490,0.983,0.706,0.317,0.564,0.528,��쓌,2.8,�L
2023/11/23,08:10,0.518,0.784,0.491,0.984,0.708,0.319,0.563,0.528,��,2.3,��
2023/11/23,08:20,0.517,0.787,0.489,0.986,0.706,0.317,0.566,0.526,��쓌,2.3,��
2023/11/23,08:30,0.518,0.786,0.489,0.984,0.708,0.318,0.566,0.528,��쐼,2.6,��
2023/11/23,08:40,0.519,0.787,0.489,0.985,0.707,0.316,0.563,0.527,��,2.9,��
2023/11/23,08:50,0.518,0.786,0.488,0.983,0.704,0.318,0.565,0.528,��쐼,3.2,��
2023/11/23,09:00,0.517,0.787,0.489,0.984,0.708,0.318,0.564,0.527,��,1.9,��
2023/11/23,09:10,0.518,0.786,0.490,0.983,0.707,0.316,0.565,0.527,��쓌,0.9,��
2023/11/23,09:20,0.517,0.787,0.490,0.984,0.706,0.317,0.565,0.528,��쓌,1.1,��
2023/11/23,09:30,0.518,0.789,0.490,0.985,0.708,0.317,0.563,0.528,��쓌,1.5,��
2023/11/23,09:40,0.518,0.788,0.492,0.985,0.706,0.317,0.564,0.528,��쓌,2.0,��
2023/11/23,09:50,0.518,0.789,0.491,0.985,0.706,0.317,0.564,0.528,��쓌,0.9,��
2023/11/23,10:00,0.516,0.786,0.490,0.984,0.705,0.316,0.566,0.527,��쓌,0.8,��
2023/11/23,10:10,0.518,0.787,0.491,0.985,0.708,0.316,0.566,0.528,�쓌,1.4,��
2023/11/23,10:20,0.519,0.786,0.492,0.986,0.705,0.316,0.566,0.527,�쓌,1.2,��
2023/11/23,10:30,0.518,0.786,0.490,0.986,0.707,0.316,0.565,0.527,-,CALM,��
2023/11/23,10:40,0.517,0.784,0.491,0.985,0.706,0.316,0.565,0.526,�쓌,1.5,��
2023/11/23,10:50,0.517,0.784,0.491,0.985,0.707,0.315,0.565,0.526,�쓌,2.0,��
2023/11/23,11:00,0.517,0.784,0.490,0.986,0.705,0.316,0.564,0.528,�쓌,2.9,��
2023/11/23,11:10,0.518,0.785,0.490,0.984,0.706,0.318,0.566,0.527,�쓌,1.7,��
2023/11/23,11:20,0.518,0.783,0.489,0.984,0.707,0.315,0.566,0.526,��,1.7,��
2023/11/23,11:30,0.517,0.783,0.491,0.986,0.705,0.315,0.565,0.527,��쓌,2.5,��
2023/11/23,11:40,0.518,0.785,0.490,0.985,0.704,0.317,0.567,0.527,��쓌,8.5,��
2023/11/23,11:50,0.519,0.786,0.489,0.986,0.706,0.317,0.566,0.525,��쓌,8.4,��
2023/11/23,12:00,0.519,0.786,0.487,0.985,0.707,0.317,0.568,0.525,��쓌,8.5,��
2023/11/23,12:10,0.518,0.783,0.490,0.987,0.706,0.316,0.568,0.525,��쓌,9.1,��
2023/11/23,12:20,0.518,0.786,0.489,0.984,0.706,0.317,0.567,0.526,��쓌,10.2,��
2023/11/23,12:30,0.518,0.785,0.489,0.983,0.706,0.316,0.565,0.527,��,9.2,��
2023/11/23,12:40,0.517,0.786,0.490,0.984,0.706,0.316,0.567,0.527,��,8.0,��
2023/11/23,12:50,0.517,0.786,0.489,0.986,0.706,0.315,0.566,0.527,��,7.4,��
2023/11/23,13:00,0.517,0.786,0.491,0.985,0.707,0.317,0.567,0.526,��,7.9,��
2023/11/23,13:10,0.520,0.786,0.490,0.986,0.707,0.316,0.567,0.526,��쓌,8.2,��
2023/11/23,13:20,0.518,0.785,0.489,0.986,0.707,0.317,0.566,0.528,��쓌,9.3,��
2023/11/23,13:30,0.519,0.786,0.488,0.987,0.706,0.316,0.567,0.526,��쓌,9.3,��
2023/11/23,13:40,0.518,0.784,0.490,0.985,0.707,0.317,0.566,0.527,��쓌,9.0,��
2023/11/23,13:50,0.519,0.787,0.490,0.986,0.708,0.316,0.566,0.525,��,8.1,��
2023/11/23,14:00,0.518,0.786,0.489,0.986,0.707,0.316,0.566,0.527,��,8.8,��
2023/11/23,14:10,0.518,0.785,0.490,0.987,0.707,0.317,0.566,0.526,��,6.4,��
2023/11/23,14:20,0.516,0.785,0.490,0.987,0.708,0.317,0.567,0.526,��,7.1,��
2023/11/23,14:30,0.518,0.786,0.491,0.983,0.706,0.317,0.566,0.527,��,6.3,��
2023/11/23,14:40,0.519,0.786,0.490,0.985,0.708,0.316,0.567,0.528,��,5.5,��
2023/11/23,14:50,0.517,0.787,0.489,0.985,0.707,0.317,0.565,0.525,��,6.4,��
2023/11/23,15:00,0.519,0.787,0.488,0.987,0.705,0.317,0.566,0.526,��,6.6,��
2023/11/23,15:10,0.518,0.787,0.489,0.985,0.705,0.317,0.567,0.526,��,6.6,��
2023/11/23,15:20,0.519,0.788,0.489,0.988,0.707,0.317,0.567,0.526,��,6.6,��
2023/11/23,15:30,0.519,0.787,0.489,0.985,0.706,0.317,0.565,0.528,��쐼,5.7,��
2023/11/23,15:40,0.518,0.786,0.489,0.986,0.707,0.316,0.567,0.527,��,6.8,��
2023/11/23,15:50,0.517,0.788,0.491,0.987,0.706,0.317,0.566,0.527,��,6.5,��
2023/11/23,16:00,0.517,0.787,0.490,0.988,0.705,0.318,0.566,0.527,��,5.1,��
2023/11/23,16:10,0.517,0.788,0.489,0.986,0.709,0.318,0.564,0.526,��,5.7,��
2023/11/23,16:20,0.518,0.788,0.489,0.985,0.708,0.318,0.566,0.528,��,6.3,��
2023/11/23,16:30,0.517,0.791,0.493,0.985,0.710,0.318,0.567,0.527,��,7.0,��
2023/11/23,16:40,0.519,0.790,0.491,0.987,0.708,0.317,0.566,0.530,��,6.5,��
2023/11/23,16:50,0.518,0.789,0.491,0.987,0.710,0.316,0.566,0.528,��쐼,5.9,��
2023/11/23,17:00,0.519,0.791,0.492,0.985,0.707,0.316,0.566,0.527,��쐼,4.7,��
2023/11/23,17:10,0.519,0.790,0.492,0.986,0.708,0.318,0.567,0.530,��쐼,4.3,��
2023/11/23,17:20,0.520,0.791,0.492,0.987,0.709,0.317,0.568,0.529,��쐼,4.8,��
2023/11/23,17:30,0.521,0.791,0.493,0.987,0.711,0.319,0.567,0.530,��쐼,4.8,��
2023/11/23,17:40,0.522,0.791,0.492,0.985,0.709,0.317,0.567,0.528,��쐼,5.0,��
2023/11/23,17:50,0.519,0.789,0.491,0.986,0.707,0.317,0.568,0.531,��쐼,5.3,��
2023/11/23,18:00,0.520,0.791,0.493,0.988,0.710,0.319,0.567,0.530,��쐼,5.2,��
2023/11/23,18:10,0.520,0.789,0.492,0.986,0.710,0.318,0.568,0.529,��쐼,4.6,��
2023/11/23,18:20,0.521,0.790,0.491,0.987,0.709,0.318,0.569,0.529,�쐼,4.9,��
2023/11/23,18:30,0.519,0.789,0.492,0.987,0.709,0.317,0.567,0.529,�쐼,4.2,��
2023/11/23,18:40,0.519,0.790,0.491,0.985,0.712,0.320,0.567,0.528,���쐼,3.4,��
2023/11/23,18:50,0.520,0.789,0.491,0.987,0.709,0.318,0.569,0.528,���쐼,3.2,��
2023/11/23,19:00,0.522,0.789,0.490,0.987,0.709,0.318,0.568,0.530,��,3.1,��
2023/11/23,19:10,0.520,0.790,0.491,0.986,0.710,0.320,0.568,0.529,��,3.7,��
2023/11/23,19:20,0.521,0.788,0.492,0.986,0.709,0.317,0.568,0.529,��,4.1,��
2023/11/23,19:30,0.520,0.790,0.490,0.987,0.708,0.318,0.566,0.529,��,3.2,��
2023/11/23,19:40,0.520,0.791,0.492,0.986,0.709,0.317,0.567,0.529,���k��,3.4,��
2023/11/23,19:50,0.518,0.792,0.492,0.988,0.709,0.318,0.568,0.528,���k��,4.0,��
2023/11/23,20:00,0.520,0.789,0.491,0.988,0.709,0.319,0.567,0.529,�k��,3.2,��
2023/11/23,20:10,0.521,0.789,0.491,0.988,0.709,0.319,0.568,0.528,�k��,4.4,��
2023/11/23,20:20,0.521,0.788,0.492,0.987,0.709,0.317,0.567,0.527,�k��,4.7,��
2023/11/23,20:30,0.521,0.790,0.491,0.988,0.710,0.317,0.567,0.529,�k��,4.1,��
2023/11/23,20:40,0.520,0.790,0.492,0.988,0.709,0.317,0.567,0.527,�k��,4.2,��
2023/11/23,20:50,0.521,0.788,0.491,0.988,0.709,0.319,0.566,0.529,�k��,4.6,��
2023/11/23,21:00,0.520,0.789,0.491,0.987,0.709,0.318,0.567,0.528,�k��,4.4,��
2023/11/23,21:10,0.521,0.791,0.492,0.987,0.711,0.317,0.566,0.529,���k��,2.2,��
2023/11/23,21:20,0.521,0.790,0.490,0.987,0.708,0.318,0.567,0.529,���k��,2.3,��
2023/11/23,21:30,0.520,0.791,0.490,0.987,0.709,0.318,0.568,0.528,���k��,2.3,��
2023/11/23,21:40,0.521,0.790,0.492,0.988,0.710,0.318,0.569,0.529,�쐼,2.0,��
2023/11/23,21:50,0.521,0.789,0.492,0.986,0.710,0.317,0.566,0.528,��,2.6,��
2023/11/23,22:00,0.522,0.789,0.491,0.989,0.709,0.318,0.568,0.528,��쐼,2.3,��
2023/11/23,22:10,0.520,0.789,0.491,0.988,0.708,0.320,0.567,0.529,��쐼,2.6,��
2023/11/23,22:20,0.520,0.788,0.491,0.987,0.708,0.318,0.567,0.528,��쐼,2.5,��
2023/11/23,22:30,0.522,0.789,0.492,0.988,0.710,0.318,0.568,0.529,�쐼,3.2,��
2023/11/23,22:40,0.521,0.787,0.491,0.988,0.711,0.318,0.567,0.529,�쐼,2.6,��
2023/11/23,22:50,0.519,0.789,0.493,0.988,0.709,0.317,0.567,0.528,��쐼,2.5,��
2023/11/23,23:00,0.520,0.788,0.491,0.986,0.710,0.318,0.569,0.529,��쐼,3.1,��
2023/11/23,23:10,0.522,0.788,0.491,0.984,0.711,0.317,0.568,0.528,��쐼,2.6,��
2023/11/23,23:20,0.521,0.789,0.490,0.989,0.709,0.318,0.567,0.527,��,2.9,��
2023/11/23,23:30,0.523,0.789,0.490,0.989,0.709,0.317,0.568,0.529,��쓌,3.7,��
2023/11/23,23:40,0.520,0.790,0.491,0.987,0.709,0.318,0.567,0.528,��,3.2,��
2023/11/23,23:50,0.521,0.789,0.491,0.989,0.709,0.318,0.567,0.528,��쓌,3.4,��
